N345SB KBDL-KEWR

Flight info

Callsign N345SB
Flight time N/A
Altitude 6000
Route HFD V3 CMK V623 SAX/N0179F070
Aircraft C310/L-SDFGR/S

Departure

Time 2025-12-30 02:05
Airport Bradley International Airport (KBDL)

Arrival

Time N/A
Airport Newark Liberty International Airport (KEWR)
Time Latitude Longitude Altitude Speed Heading
2025-12-30 01:32 41.93765 -72.69487 178 ft 0 kts 326°
2025-12-30 01:33 41.93764 -72.69486 178 ft 0 kts 326°
2025-12-30 01:36 41.93763 -72.69485 178 ft 0 kts 326°
2025-12-30 01:40 41.93762 -72.69484 178 ft 0 kts 326°
2025-12-30 01:43 41.93761 -72.69483 178 ft 0 kts 326°
2025-12-30 01:47 41.93760 -72.69482 178 ft 0 kts 326°
2025-12-30 01:49 41.93730 -72.69510 178 ft 0 kts 119°
2025-12-30 01:51 41.93729 -72.69508 178 ft 4 kts 114°
2025-12-30 01:52 41.93829 -72.69294 178 ft 14 kts 17°
2025-12-30 01:52 41.93866 -72.69287 177 ft 1 kts
2025-12-30 01:52 41.93798 -72.69323 178 ft 16 kts 219°
2025-12-30 01:53 41.93722 -72.69301 180 ft 3 kts 116°
2025-12-30 01:54 41.93803 -72.69170 180 ft 21 kts 43°
2025-12-30 01:54 41.93817 -72.68978 179 ft 0 kts 140°
2025-12-30 01:55 41.93746 -72.68875 180 ft 12 kts 128°
2025-12-30 01:55 41.93632 -72.68694 177 ft 0 kts 137°
2025-12-30 01:57 41.93630 -72.68692 177 ft 4 kts 155°
2025-12-30 01:57 41.93643 -72.68699 177 ft 0 kts 311°
2025-12-30 01:58 41.93646 -72.68705 177 ft 2 kts 303°
2025-12-30 01:58 41.93789 -72.68625 178 ft 25 kts 44°
2025-12-30 01:59 41.94052 -72.68288 181 ft 29 kts 43°
2025-12-30 01:59 41.94193 -72.68116 190 ft 26 kts 39°
2025-12-30 02:00 41.94248 -72.68049 184 ft 0 kts 41°
2025-12-30 02:00 41.94436 -72.67824 182 ft 30 kts 41°
2025-12-30 02:01 41.94723 -72.67435 177 ft 29 kts 43°
2025-12-30 02:01 41.94991 -72.67138 174 ft 0 kts 313°
2025-12-30 02:02 41.95008 -72.67165 174 ft 13 kts 310°
2025-12-30 02:03 41.95034 -72.67255 174 ft 10 kts 224°
2025-12-30 02:03 41.94413 -72.68040 261 ft 98 kts 217°
2025-12-30 02:04 41.93312 -72.69113 929 ft 103 kts 222°
2025-12-30 02:04 41.92687 -72.69668 1292 ft 115 kts 225°
2025-12-30 02:05 41.90926 -72.71597 2526 ft 116 kts 233°
2025-12-30 02:05 41.88833 -72.73126 3315 ft 120 kts 217°
2025-12-30 02:06 41.87388 -72.73989 3776 ft 118 kts 223°
2025-12-30 02:06 41.85904 -72.75150 3960 ft 128 kts 230°
2025-12-30 02:07 41.85194 -72.75838 4243 ft 123 kts 227°
2025-12-30 02:07 41.83762 -72.77031 4701 ft 116 kts 233°
2025-12-30 02:08 41.83301 -72.78849 4938 ft 109 kts 279°
2025-12-30 02:08 41.83521 -72.80856 5359 ft 108 kts 282°
2025-12-30 02:09 41.83989 -72.82793 5639 ft 109 kts 301°
2025-12-30 02:09 41.85291 -72.85313 6038 ft 114 kts 295°
2025-12-30 02:10 41.85751 -72.87397 5849 ft 133 kts 264°
2025-12-30 02:10 41.85136 -72.88271 6059 ft 130 kts 225°
2025-12-30 02:11 41.83473 -72.89668 6083 ft 146 kts 202°
2025-12-30 02:11 41.81292 -72.89222 6085 ft 160 kts 182°
2025-12-30 02:12 41.79272 -72.89691 6060 ft 156 kts 206°
2025-12-30 02:12 41.77062 -72.90303 6021 ft 155 kts 211°
2025-12-30 02:13 41.75365 -72.91890 5904 ft 141 kts 257°
2025-12-30 02:13 41.74084 -72.93644 5992 ft 150 kts 221°
2025-12-30 02:14 41.71679 -72.95669 6120 ft 138 kts 240°
2025-12-30 02:14 41.71024 -72.96626 6029 ft 141 kts 239°
2025-12-30 02:15 41.69637 -72.98620 5812 ft 151 kts 240°
2025-12-30 02:15 41.68194 -73.00700 5548 ft 157 kts 239°
2025-12-30 02:16 41.66697 -73.02858 5289 ft 163 kts 239°
2025-12-30 02:16 41.65125 -73.05133 5030 ft 169 kts 237°
2025-12-30 02:17 41.63668 -73.07205 5364 ft 133 kts 240°
2025-12-30 02:17 41.62552 -73.08798 5840 ft 103 kts 245°
2025-12-30 02:18 41.61197 -73.10820 6089 ft 112 kts 243°
2025-12-30 02:18 41.60643 -73.11630 6088 ft 122 kts 242°
2025-12-30 02:19 41.59424 -73.13379 6094 ft 135 kts 240°
2025-12-30 02:19 41.58122 -73.15240 6100 ft 140 kts 240°
2025-12-30 02:20 41.56759 -73.17193 6091 ft 147 kts 239°
2025-12-30 02:20 41.56053 -73.18206 6103 ft 149 kts 239°
2025-12-30 02:20 41.54621 -73.20252 6091 ft 151 kts 239°
2025-12-30 02:21 41.52454 -73.23349 6099 ft 152 kts 239°
2025-12-30 02:22 41.51050 -73.25358 6096 ft 145 kts 239°
2025-12-30 02:22 41.49690 -73.27290 6088 ft 142 kts 240°
2025-12-30 02:23 41.48320 -73.29264 6073 ft 146 kts 239°
2025-12-30 02:23 41.46234 -73.32248 6077 ft 148 kts 239°
2025-12-30 02:24 41.45530 -73.33243 6122 ft 148 kts 240°
2025-12-30 02:24 41.44135 -73.35231 6125 ft 144 kts 240°
2025-12-30 02:25 41.42756 -73.37198 6123 ft 146 kts 240°
2025-12-30 02:25 41.41369 -73.39174 6124 ft 148 kts 240°
2025-12-30 02:26 41.39249 -73.42194 6124 ft 147 kts 240°
2025-12-30 02:26 41.37843 -73.44195 6128 ft 147 kts 240°
2025-12-30 02:27 41.36459 -73.46137 6137 ft 140 kts 239°
2025-12-30 02:27 41.35101 -73.48085 6126 ft 143 kts 240°
2025-12-30 02:28 41.34422 -73.49040 6127 ft 142 kts 241°
2025-12-30 02:28 41.32979 -73.50794 6124 ft 143 kts 234°
2025-12-30 02:29 41.31429 -73.52423 6132 ft 142 kts 233°
2025-12-30 02:29 41.29032 -73.54934 6139 ft 147 kts 233°
2025-12-30 02:30 41.27420 -73.56623 6136 ft 147 kts 233°
2025-12-30 02:30 41.25831 -73.58285 6132 ft 145 kts 233°
2025-12-30 02:31 41.24213 -73.59980 6134 ft 148 kts 233°
2025-12-30 02:31 41.22631 -73.61641 6127 ft 143 kts 233°
2025-12-30 02:32 41.21849 -73.62453 6126 ft 141 kts 234°
2025-12-30 02:32 41.20545 -73.63816 6131 ft 146 kts 234°
2025-12-30 02:33 41.18922 -73.65502 6130 ft 149 kts 233°
2025-12-30 02:33 41.16515 -73.68021 6134 ft 145 kts 234°
2025-12-30 02:34 41.14958 -73.69647 6132 ft 144 kts 235°
2025-12-30 02:34 41.14175 -73.70464 6135 ft 142 kts 235°
2025-12-30 02:35 41.11847 -73.72882 6134 ft 139 kts 235°
2025-12-30 02:35 41.11085 -73.73682 6136 ft 140 kts 235°
2025-12-30 02:36 41.09519 -73.75313 6143 ft 144 kts 235°
2025-12-30 02:36 41.07929 -73.76964 6145 ft 146 kts 234°
2025-12-30 02:37 41.06331 -73.78620 6145 ft 146 kts 235°
2025-12-30 02:37 41.04741 -73.80275 6147 ft 148 kts 234°
2025-12-30 02:38 41.02359 -73.82749 6142 ft 144 kts 236°
2025-12-30 02:38 41.00765 -73.84402 6147 ft 148 kts 234°
2025-12-30 02:39 40.99943 -73.85255 6154 ft 153 kts 234°
2025-12-30 02:39 40.98254 -73.86996 6143 ft 153 kts 234°
2025-12-30 02:40 40.96608 -73.88704 6153 ft 148 kts 235°
2025-12-30 02:40 40.94976 -73.90396 6199 ft 151 kts 235°
2025-12-30 02:41 40.93331 -73.92087 6198 ft 148 kts 235°
2025-12-30 02:41 40.90931 -73.94575 6206 ft 148 kts 235°
2025-12-30 02:42 40.90124 -73.95404 6208 ft 146 kts 235°
2025-12-30 02:42 40.88515 -73.97075 6209 ft 148 kts 236°
2025-12-30 02:43 40.87212 -73.98965 6200 ft 133 kts 244°
2025-12-30 02:43 40.85958 -74.00760 5676 ft 137 kts 245°
2025-12-30 02:44 40.84632 -74.02626 5031 ft 140 kts 243°
2025-12-30 02:44 40.83274 -74.04517 4395 ft 143 kts 240°
2025-12-30 02:45 40.81883 -74.06434 3748 ft 145 kts 238°
2025-12-30 02:45 40.79791 -74.09260 2785 ft 144 kts 236°
2025-12-30 02:46 40.79064 -74.10179 2462 ft 145 kts 235°
2025-12-30 02:46 40.76563 -74.11876 1882 ft 133 kts 212°
2025-12-30 02:47 40.75864 -74.12376 1796 ft 105 kts 229°
2025-12-30 02:47 40.74714 -74.13281 1380 ft 106 kts 217°
2025-12-30 02:48 40.73498 -74.14141 1118 ft 101 kts 220°
2025-12-30 02:48 40.72207 -74.14948 791 ft 96 kts 210°
2025-12-30 02:48 40.71611 -74.15315 593 ft 92 kts 215°
2025-12-30 02:49 40.69939 -74.16387 53 ft 80 kts 217°